User: anonymous   Login
Location: Unspecified
(0.0000°N, 0.0000°E)
Time: 08:08:37
(UTC+00:00)
Language:

Courier 1B Rocket - Orbit

View from above orbital plane
View from above orbital plane
View from above satellite
View from above satellite

Ground track
Ground track

The orbit data is extracted from the following two-line orbital elements,

1 00059U 60013B   15149.51146761  .00000113  00000-0  30120-4 0  9990
2 00059 028.2510 340.0514 0189358 273.2231 084.6667 13.52923144696939
Epoch (UTC): 29 May 2015 12:16:30
Eccentricity: 0.0189358
inclination: 28.2510°
perigee height: 920 km
apogee height: 1202 km
right ascension of ascending node: 340.0514°
argument of perigee: 273.2231°
revolutions per day: 13.52923144
mean anomaly at epoch: 84.6667°
orbit number at epoch: 69693

The dashed part of the orbit path shows where the satellite is in the earth's shadow,  

DLR